This is the latest recevied weather packets stored in our database for station/object WX7FGZ-3. If no packets are shown the sender has not sent any weather packets the latest 10 day(s).
| Time | Temp. | Humidity | Pressure | Rain* | Wind** | Luminosity | Snow |
|---|---|---|---|---|---|---|---|
| 1777868321 | 10.56° C | 53% | 1007.7 hPa | 0 mm | - | - | - |
| 1777868020 | 11.11° C | 51% | 1007.6 hPa | 0 mm | - | - | - |
| 1777867720 | 11.11° C | 50% | 1007.7 hPa | 0 mm | - | - | - |
| 1777867420 | 11.67° C | 51% | 1007.5 hPa | 0 mm | - | - | - |
| 1777867120 | 11.67° C | 49% | 1007.5 hPa | 0 mm | - | - | - |
| 1777866819 | 11.67° C | 50% | 1007.6 hPa | 0 mm | - | - | - |
| 1777866519 | 11.67° C | 50% | 1007.3 hPa | 0 mm | - | - | - |
| 1777865918 | 11.11° C | 53% | 1007.3 hPa | 0 mm | - | - | - |
| 1777865618 | 11.67° C | 52% | 1007.2 hPa | 0 mm | - | - | - |
| 1777865318 | 11.67° C | 51% | 1007.4 hPa | 0 mm | - | - | - |
| 1777865017 | 11.67° C | 49% | 1007.6 hPa | 0 mm | - | - | - |
| 1777864719 | 12.22° C | 47% | 1007.6 hPa | 0 mm | - | - | - |
| 1777864116 | 12.78° C | 47% | 1007.6 hPa | 0 mm | - | - | - |
| 1777863516 | 12.78° C | 46% | 1007.6 hPa | 0 mm | - | - | - |
| 1777863216 | 13.33° C | 46% | 1007.5 hPa | 0 mm | - | - | - |
| 1777862615 | 13.33° C | 45% | 1007.5 hPa | 0 mm | - | - | - |
| 1777862014 | 13.33° C | 44% | 1007.6 hPa | 0 mm | - | - | - |
| 1777861714 | 13.33° C | 44% | 1007.6 hPa | 0 mm | - | - | - |
| 1777861414 | 13.89° C | 43% | 1007.6 hPa | 0 mm | - | - | - |
| 1777861115 | 13.89° C | 42% | 1007.5 hPa | 0 mm | - | - | - |
| 1777860813 | 13.89° C | 42% | 1007.5 hPa | 0 mm | - | - | - |
| 1777860513 | 13.89° C | 42% | 1007.7 hPa | 0 mm | - | - | - |
| 1777860213 | 13.89° C | 42% | 1008.3 hPa | 0 mm | - | - | - |
| 1777859913 | 14.44° C | 41% | 1008.4 hPa | 0 mm | - | - | - |
| 1777859612 | 14.44° C | 41% | 1008.4 hPa | 0 mm | - | - | - |
* Rain latest hour (hover to see other rain measurements)
** Current wind speed in m/s (hover to see current wind gust speed)